Weather History for Asheboro, NC

Change the Weather History Date:

Tuesday, February 4, 2014

  Actual Average Record
Temperature  
Mean Temperature 38 °F -  
Max Temperature 39 °F 52 °F 75 °F (1991)
Min Temperature 36 °F 30 °F 9 °F (1970)
Degree Days  
Heating Degree Days 27    
Moisture  
Dew Point 35 °F    
Average Humidity 92    
Maximum Humidity 100    
Minimum Humidity 78    
Precipitation  
Precipitation 0.23 in - - ()
Sea Level Pressure  
Sea Level Pressure 30.28 in    
Wind  
Wind Speed 5 mph (NE)    
Max Wind Speed 9 mph    
Max Gust Speed 18 mph    
Visibility 7 miles    
Events Rain    
Averages and records for this station are not official NWS values.
T = Trace of Precipitation, MM = Missing Value Source: NWS Daily Summary

Daily Weather History Graph

Daily Weather History Graph

Search for Another Location

Airport:

Trip Planner

Search our weather history database for the weather conditions in past years. The results will help you decide how hot, cold, wet, or windy it might be!

Date:

Astronomy

Feb. 04, 2014 Rise Set
Actual Time 7:17 AM EST 5:50 PM EST
Civil Twilight 6:50 AM EST 6:17 PM EST
Nautical Twilight 6:20 AM EST 6:47 PM EST
Astronomical Twilight 5:50 AM EST 7:17 PM EST
Moon 10:06 AM EST (2/4) 11:29 PM EST (2/4)
Length of Visible Light 11h 26m
Length of Day
10h 33m
Waxing Crescent, 29% of the Moon is Illuminated
Feb 4
Waxing Crescent
Feb 6
First Quarter
Feb 14
Full
Feb 22
Last Quarter
Mar 1
New

Hourly Weather History & Observations

Time (EST) Temp. Windchill Dew Point Humidity Pressure Visibility Wind Dir Wind Speed Gust Speed Precip Events Conditions
12:15 AM 40.5 °F 35.8 °F 34.5 °F 79% 30.28 in 10.0 mi NE 6.9 mph - N/A   Overcast
12:35 AM 40.1 °F 34.1 °F 33.8 °F 78% 30.27 in 10.0 mi NE 9.2 mph 18.4 mph N/A   Overcast
12:55 AM 39.6 °F 36.3 °F 33.8 °F 80% 30.28 in 10.0 mi NNE 4.6 mph - N/A   Mostly Cloudy
1:15 AM 39.4 °F 35.2 °F 33.8 °F 80% 30.27 in 10.0 mi NNE 5.8 mph - N/A   Mostly Cloudy
1:35 AM 38.8 °F 35.4 °F 33.8 °F 82% 30.27 in 10.0 mi NNE 4.6 mph - N/A   Scattered Clouds
1:55 AM 38.5 °F 36.1 °F 33.3 °F 81% 30.28 in 10.0 mi NE 3.5 mph - N/A   Scattered Clouds
2:15 AM 37.9 °F 35.5 °F 33.3 °F 83% 30.29 in 10.0 mi NNE 3.5 mph - N/A   Clear
2:35 AM 37.6 °F 33.1 °F 33.8 °F 86% 30.30 in 10.0 mi NNE 5.8 mph - N/A   Mostly Cloudy
2:55 AM 37.6 °F 35.1 °F 34.0 °F 87% 30.29 in 10.0 mi NNE 3.5 mph - N/A   Overcast
3:15 AM 37.6 °F 33.1 °F 34.2 °F 87% 30.29 in 10.0 mi NNE 5.8 mph - N/A   Overcast
3:35 AM 37.4 °F 32.1 °F 34.0 °F 87% 30.29 in 10.0 mi NE 6.9 mph - N/A   Overcast
3:55 AM 37.4 °F 31.4 °F 34.2 °F 88% 30.29 in 10.0 mi ENE 8.1 mph - N/A   Overcast
4:15 AM 37.4 °F 30.8 °F 34.0 °F 87% 30.30 in 10.0 mi NE 9.2 mph - N/A   Overcast
4:35 AM 37.4 °F 33.8 °F 34.2 °F 88% 30.30 in 10.0 mi ENE 4.6 mph - N/A   Overcast
4:55 AM 37.4 °F 32.1 °F 34.0 °F 87% 30.30 in 10.0 mi NE 6.9 mph - N/A   Overcast
5:15 AM 37.4 °F 32.8 °F 34.0 °F 87% 30.32 in 10.0 mi NE 5.8 mph - N/A   Overcast
5:35 AM 37.4 °F 32.8 °F 33.8 °F 87% 30.32 in 10.0 mi ENE 5.8 mph - N/A   Overcast
5:55 AM 37.4 °F 33.8 °F 34.0 °F 87% 30.34 in 10.0 mi ENE 4.6 mph - N/A   Overcast
6:15 AM 37.4 °F 32.8 °F 34.0 °F 87% 30.34 in 10.0 mi NE 5.8 mph - N/A   Overcast
6:35 AM 37.4 °F 33.8 °F 33.8 °F 87% 30.34 in 10.0 mi ENE 4.6 mph - N/A   Overcast
6:55 AM 37.4 °F 34.9 °F 34.0 °F 87% 30.34 in 10.0 mi ENE 3.5 mph - N/A   Overcast
7:15 AM 37.4 °F 32.8 °F 34.0 °F 87% 30.35 in 10.0 mi NE 5.8 mph - N/A   Overcast
7:35 AM 37.4 °F 33.8 °F 34.0 °F 87% 30.36 in 10.0 mi NE 4.6 mph - N/A   Overcast
7:55 AM 37.4 °F - 34.0 °F 87% 30.37 in 10.0 mi Calm Calm - N/A   Overcast
8:15 AM 37.4 °F 34.9 °F 34.0 °F 87% 30.37 in 10.0 mi NE 3.5 mph - N/A   Overcast
8:35 AM 37.6 °F 33.1 °F 34.0 °F 87% 30.38 in 10.0 mi NNE 5.8 mph - N/A   Overcast
8:55 AM 37.6 °F - 34.0 °F 87% 30.38 in 10.0 mi Calm Calm - N/A   Overcast
9:15 AM 37.8 °F 34.2 °F 34.0 °F 86% 30.39 in 10.0 mi NE 4.6 mph - N/A   Overcast
9:35 AM 37.6 °F 32.3 °F 33.8 °F 86% 30.38 in 10.0 mi NNE 6.9 mph - N/A   Overcast
9:55 AM 37.4 °F 32.8 °F 33.6 °F 86% 30.39 in 10.0 mi North 5.8 mph - N/A   Overcast
10:15 AM 37.6 °F 33.1 °F 33.6 °F 86% 30.39 in 10.0 mi North 5.8 mph - N/A   Overcast
10:35 AM 37.6 °F 33.1 °F 33.4 °F 85% 30.39 in 10.0 mi NE 5.8 mph - N/A   Overcast
10:55 AM 37.6 °F 33.1 °F 33.6 °F 86% 30.40 in 10.0 mi NNE 5.8 mph - N/A   Overcast
11:15 AM 37.4 °F 33.8 °F 33.8 °F 87% 30.39 in 10.0 mi NE 4.6 mph - N/A   Overcast
11:35 AM 37.4 °F 32.8 °F 33.8 °F 87% 30.39 in 10.0 mi NNE 5.8 mph - N/A   Overcast
11:55 AM 37.4 °F 33.8 °F 33.8 °F 87% 30.38 in 10.0 mi NNE 4.6 mph - N/A   Overcast
12:15 PM 37.4 °F 32.1 °F 34.3 °F 89% 30.35 in 5.0 mi NE 6.9 mph - N/A   Overcast
12:35 PM 37.4 °F 32.1 °F 34.5 °F 89% 30.33 in 7.0 mi NNE 6.9 mph - N/A   Overcast
12:55 PM 37.4 °F 33.8 °F 34.3 °F 89% 30.33 in 7.0 mi NE 4.6 mph - N/A   Overcast
1:15 PM 37.4 °F 33.8 °F 34.3 °F 89% 30.31 in 10.0 mi NE 4.6 mph - N/A   Overcast
1:35 PM 36.9 °F 34.3 °F 34.7 °F 92% 30.31 in 5.0 mi East 3.5 mph - N/A Rain Rain
1:55 PM 36.9 °F 33.1 °F 35.4 °F 95% 30.30 in 2.5 mi NE 4.6 mph - N/A   Heavy Drizzle
2:15 PM 36.9 °F 31.4 °F 36.0 °F 97% 30.27 in 3.0 mi NNE 6.9 mph - 0.01 in Rain Light Rain
2:35 PM 36.9 °F 31.4 °F 36.1 °F 97% 30.26 in 2.5 mi NNE 6.9 mph - 0.02 in Rain Light Rain
2:55 PM 37.2 °F 33.6 °F 36.3 °F 97% 30.26 in 3.0 mi NNE 4.6 mph - 0.03 in Rain Rain
3:15 PM 37.0 °F 32.4 °F 36.1 °F 97% 30.24 in 5.0 mi NE 5.8 mph - N/A   Light Drizzle
3:35 PM 36.9 °F 33.1 °F 36.0 °F 97% 30.25 in 2.5 mi NE 4.6 mph - N/A   Drizzle
3:55 PM 36.9 °F - 36.1 °F 97% 30.25 in 2.0 mi Calm Calm - 0.01 in Rain Heavy Rain
4:15 PM 36.7 °F 34.1 °F 36.5 °F 99% 30.24 in 1.5 mi NNE 3.5 mph - 0.01 in Rain Rain
4:35 PM 36.7 °F 34.1 °F 36.5 °F 99% 30.25 in 2.5 mi North 3.5 mph - 0.02 in Rain Heavy Rain
4:55 PM 36.5 °F - 36.5 °F 100% 30.26 in 1.2 mi Calm Calm - 0.06 in Rain Rain
5:15 PM 36.7 °F - 36.5 °F 99% 30.25 in 2.0 mi Calm Calm - 0.02 in Rain Light Rain
5:35 PM 36.7 °F - 36.5 °F 99% 30.25 in 5.0 mi Calm Calm - 0.03 in Rain Rain
5:55 PM 36.5 °F - 36.5 °F 100% 30.25 in 5.0 mi Calm Calm - 0.03 in Rain Rain
6:15 PM 36.5 °F - 36.5 °F 100% 30.24 in 10.0 mi Calm Calm - N/A Rain Light Rain
6:35 PM 36.5 °F - 36.5 °F 100% 30.23 in 10.0 mi Calm Calm - 0.01 in   Light Drizzle
6:55 PM 36.5 °F 32.7 °F 36.5 °F 100% 30.23 in 4.0 mi ENE 4.6 mph - 0.01 in Rain Rain
7:15 PM 36.5 °F 32.7 °F 36.5 °F 100% 30.23 in 2.0 mi ENE 4.6 mph - 0.05 in Rain Light Rain
7:35 PM 36.5 °F 32.7 °F 36.5 °F 100% 30.22 in 4.0 mi NE 4.6 mph - 0.07 in Rain Light Rain
7:55 PM 36.5 °F 33.9 °F 36.5 °F 100% 30.22 in 7.0 mi East 3.5 mph - 0.07 in Rain Rain
8:15 PM 36.5 °F 32.7 °F 36.5 °F 100% 30.20 in 7.0 mi ENE 4.6 mph - 0.01 in   Drizzle
8:35 PM 36.7 °F 34.1 °F 36.7 °F 100% 30.19 in 4.0 mi ENE 3.5 mph - 0.01 in Rain Light Rain
8:55 PM 36.7 °F 34.1 °F 36.7 °F 100% 30.18 in 7.0 mi ENE 3.5 mph - 0.02 in Rain Light Rain
9:15 PM 36.7 °F 34.1 °F 36.7 °F 100% 30.17 in 4.0 mi ENE 3.5 mph - N/A   Overcast
9:35 PM 36.7 °F - 36.7 °F 100% 30.17 in 3.0 mi Calm Calm - N/A   Overcast
9:55 PM 36.5 °F - 36.5 °F 100% 30.17 in 2.5 mi Calm Calm - N/A   Overcast
10:15 PM 36.5 °F - 36.5 °F 100% 30.16 in 2.5 mi Calm Calm - N/A   Light Drizzle
10:35 PM 36.5 °F - 36.5 °F 100% 30.15 in 2.5 mi Calm Calm - N/A   Overcast
10:55 PM 36.7 °F - 36.7 °F 100% 30.14 in 2.5 mi Calm Calm - N/A   Overcast
11:15 PM 36.7 °F - 36.7 °F 100% 30.14 in 2.0 mi Calm Calm - N/A   Overcast
11:35 PM 36.5 °F - 36.5 °F 100% 30.12 in 2.0 mi Calm Calm - N/A   Overcast
11:55 PM 36.7 °F - 36.7 °F 100% 30.12 in 2.0 mi Calm Calm - N/A   Drizzle